Houston / Dunn Helistop, TX

11:47 AM CDT on June 21, 2018 (GMT -0500)
Houston / Dunn Helistop

Weather History for KMCJ - December, 2017

Change the Weather History Date:

Thursday, December 7, 2017

  Actual Average (WUND) Record (WUND)
Temperature  
Mean Temperature 38 °F -  
Max Temperature 42 °F - - (-1)
Min Temperature 33 °F - - (-1)
Degree Days  
Heating Degree Days 28    
Moisture  
Dew Point 37 °F    
Average Humidity 82    
Maximum Humidity 93    
Minimum Humidity 65    
Precipitation  
Precipitation 0.63 in - - ()
Sea Level Pressure  
Sea Level Pressure 30.27 in    
Wind  
Wind Speed 11 mph (North)    
Max Wind Speed 20 mph    
Max Gust Speed 29 mph    
Visibility 6 miles    
Events      
Averages and records for this station are not official NWS values.
T = Trace of Precipitation, MM = Missing Value Source: NWS Daily Summary

Daily Weather History Graph

Daily Weather History Graph

Search for Another Location

Airport or City:

Astronomy

Dec. 07, 2017 Rise Set
Actual Time 7:04 AM CST 5:22 PM CST
Civil Twilight 6:37 AM CST 5:48 PM CST
Nautical Twilight 6:08 AM CST 6:18 PM CST
Astronomical Twilight 5:39 AM CST 6:47 PM CST
Moon 10:02 PM CST (12/7) 10:50 AM CST (12/7)
Length of Visible Light 11h 10m
Length of Day
10h 18m
Waning Gibbous, 77% of the Moon is Illuminated
Dec 7
Waning Gibbous
Dec 10
Last Quarter
Dec 18
New
Dec 26
First Quarter
Jan 1
Full

Hourly Weather History & Observations

Time (CST) Temp. Windchill Dew Point Humidity Pressure Visibility Wind Dir Wind Speed Gust Speed Precip Events Conditions
12:15 AM 42.8 °F 37.5 °F 37.4 °F 81% 30.29 in 10.0 mi North 9.2 mph - N/A   Overcast
12:55 AM 42.8 °F 38.0 °F 37.4 °F 81% 30.30 in 10.0 mi North 8.1 mph - N/A   Overcast
1:15 AM 42.8 °F 37.0 °F 37.4 °F 81% 30.29 in 10.0 mi North 10.4 mph - N/A   Overcast
1:35 AM 42.8 °F 36.6 °F 37.4 °F 81% 30.27 in 10.0 mi North 11.5 mph - N/A   Overcast
1:55 AM 42.8 °F 37.0 °F 35.6 °F 76% 30.28 in 10.0 mi North 10.4 mph - N/A   Overcast
2:15 AM 42.8 °F 37.0 °F 37.4 °F 81% 30.28 in 10.0 mi NNW 10.4 mph - N/A   Overcast
2:35 AM 42.8 °F 38.6 °F 37.4 °F 81% 30.27 in 10.0 mi North 6.9 mph 12.7 mph N/A   Overcast
2:55 AM 42.8 °F 35.8 °F 33.8 °F 70% 30.27 in 10.0 mi North 13.8 mph - N/A   Overcast
3:15 AM 42.8 °F 36.6 °F 33.8 °F 70% 30.27 in 10.0 mi North 11.5 mph - N/A   Overcast
3:35 AM 42.8 °F 37.5 °F 35.6 °F 76% 30.27 in 6.0 mi North 9.2 mph - N/A   Haze
3:55 AM 41.0 °F 33.9 °F 37.4 °F 87% 30.27 in 6.0 mi North 12.7 mph - 0.01 in   Haze
4:15 AM 42.8 °F 36.6 °F 37.4 °F 81% 30.27 in 5.0 mi North 11.5 mph - N/A   Haze
4:35 AM 42.8 °F 37.0 °F 37.4 °F 81% 30.26 in 7.0 mi North 10.4 mph 19.6 mph N/A   Overcast
4:55 AM 42.8 °F 36.2 °F 37.4 °F 81% 30.27 in 7.0 mi North 12.7 mph - 0.03 in   Overcast
5:15 AM 41.0 °F 34.3 °F 37.4 °F 87% 30.27 in 6.0 mi North 11.5 mph - N/A   Overcast
5:35 AM 41.0 °F 32.2 °F 37.4 °F 87% 30.27 in 5.0 mi North 18.4 mph - N/A   Overcast
5:55 AM 42.8 °F 35.1 °F 37.4 °F 81% 30.27 in 4.0 mi North 16.1 mph 23.0 mph 0.04 in   Overcast
6:35 AM 42.8 °F 35.4 °F 37.4 °F 81% 30.28 in 5.0 mi North 15.0 mph 23.0 mph N/A   Mostly Cloudy
6:55 AM 42.8 °F 36.2 °F 37.4 °F 81% 30.30 in 6.0 mi North 12.7 mph 24.2 mph 0.06 in   Haze
7:15 AM 42.8 °F 36.6 °F 37.4 °F 81% 30.28 in 5.0 mi NNE 11.5 mph 24.2 mph N/A   Haze
7:35 AM 42.8 °F 36.2 °F 37.4 °F 81% 30.29 in 5.0 mi NNE 12.7 mph - N/A   Haze
7:55 AM 42.8 °F 36.2 °F 37.4 °F 81% 30.28 in 5.0 mi NNE 12.7 mph 20.7 mph 0.04 in   Haze
8:15 AM 42.8 °F 35.8 °F 37.4 °F 81% 30.28 in 4.0 mi NNE 13.8 mph 20.7 mph N/A   Haze
8:35 AM 42.8 °F 38.6 °F 37.4 °F 81% 30.30 in 4.0 mi Variable 6.9 mph - N/A   Haze
8:55 AM 42.8 °F 38.0 °F 39.2 °F 87% 30.31 in 3.0 mi North 8.1 mph - 0.05 in   Haze
9:15 AM 42.8 °F 38.6 °F 39.2 °F 87% 30.32 in 1.8 mi North 6.9 mph 13.8 mph N/A   Overcast
9:35 AM 42.8 °F 35.4 °F 37.4 °F 81% 30.30 in 1.8 mi NNE 15.0 mph 21.9 mph N/A   Haze
9:55 AM 42.8 °F 36.2 °F 37.4 °F 81% 30.29 in 3.0 mi NNE 12.7 mph 19.6 mph 0.11 in   Haze
10:15 AM 42.8 °F 37.0 °F 39.2 °F 87% 30.29 in 3.0 mi NE 10.4 mph - N/A   Haze
10:35 AM 42.8 °F 37.5 °F 39.2 °F 87% 30.29 in 3.0 mi NE 9.2 mph - N/A   Haze
10:55 AM 42.8 °F 38.6 °F 39.2 °F 87% 30.30 in 3.0 mi NNE 6.9 mph - 0.06 in   Haze
11:15 AM 42.8 °F - 39.2 °F 87% 30.30 in 3.0 mi Calm Calm - N/A   Haze
11:35 AM 42.8 °F 40.1 °F 39.2 °F 87% 30.31 in 2.5 mi North 4.6 mph - N/A   Overcast
11:55 AM 42.8 °F 38.0 °F 39.2 °F 87% 30.30 in 2.0 mi North 8.1 mph 16.1 mph 0.09 in   Overcast
12:15 PM 42.8 °F 36.6 °F 39.2 °F 87% 30.29 in 2.5 mi North 11.5 mph 17.3 mph N/A   Overcast
12:35 PM 42.8 °F 37.0 °F 39.2 °F 87% 30.28 in 2.0 mi North 10.4 mph 17.3 mph N/A   Overcast
1:15 PM 42.8 °F 38.6 °F 39.2 °F 87% 30.27 in 2.0 mi North 6.9 mph 13.8 mph N/A   Overcast
1:35 PM 42.8 °F 37.5 °F 39.2 °F 87% 30.26 in 2.5 mi North 9.2 mph - N/A   Overcast
1:55 PM 42.8 °F 37.5 °F 39.2 °F 87% 30.25 in 3.0 mi North 9.2 mph 20.7 mph 0.05 in   Overcast
2:15 PM 42.8 °F 36.6 °F 39.2 °F 87% 30.24 in 3.0 mi North 11.5 mph - N/A   Overcast
2:35 PM 42.8 °F 37.5 °F 39.2 °F 87% 30.24 in 3.0 mi North 9.2 mph 18.4 mph N/A   Overcast
2:55 PM 42.8 °F 36.6 °F 39.2 °F 87% 30.23 in 7.0 mi North 11.5 mph 19.6 mph 0.04 in   Mostly Cloudy
3:15 PM 42.8 °F 38.0 °F 39.2 °F 87% 30.22 in 5.0 mi North 8.1 mph 16.1 mph N/A   Mostly Cloudy
3:55 PM 42.8 °F 36.6 °F 39.2 °F 87% 30.23 in 4.0 mi North 11.5 mph - 0.02 in   Mostly Cloudy
4:15 PM 42.8 °F 35.1 °F 37.4 °F 81% 30.23 in 7.0 mi North 16.1 mph - N/A   Overcast
4:35 PM 42.8 °F 36.6 °F 37.4 °F 81% 30.23 in 5.0 mi North 11.5 mph 21.9 mph N/A   Haze
4:55 PM 42.8 °F 36.2 °F 37.4 °F 81% 30.24 in 4.0 mi North 12.7 mph 20.7 mph N/A   Haze
5:15 PM 42.8 °F 37.0 °F 37.4 °F 81% 30.25 in 6.0 mi North 10.4 mph 16.1 mph N/A   Haze
5:35 PM 41.0 °F 35.2 °F 37.4 °F 87% 30.23 in 4.0 mi North 9.2 mph 19.6 mph N/A   Haze
5:55 PM 41.0 °F 35.2 °F 37.4 °F 87% 30.24 in 7.0 mi North 9.2 mph 17.3 mph 0.01 in   Mostly Cloudy
6:15 PM 42.8 °F 37.5 °F 37.4 °F 81% 30.24 in 10.0 mi NNW 9.2 mph - N/A   Partly Cloudy
6:35 PM 42.8 °F 36.2 °F 37.4 °F 81% 30.24 in 10.0 mi North 12.7 mph 19.6 mph N/A   Mostly Cloudy
6:55 PM 42.8 °F 36.6 °F 35.6 °F 76% 30.26 in 10.0 mi North 11.5 mph 18.4 mph N/A   Overcast
7:35 PM 42.8 °F 36.6 °F 37.4 °F 81% 30.27 in 10.0 mi NNW 11.5 mph - N/A   Mostly Cloudy
7:55 PM 42.8 °F 37.0 °F 33.8 °F 70% 30.28 in 10.0 mi NNW 10.4 mph - N/A   Scattered Clouds
8:15 PM 41.0 °F 33.5 °F 33.8 °F 76% 30.27 in 10.0 mi NNW 13.8 mph - N/A   Partly Cloudy
8:35 PM 41.0 °F 32.5 °F 30.2 °F 65% 30.27 in 10.0 mi NNW 17.3 mph 23.0 mph N/A   Clear
8:55 PM 41.0 °F 32.2 °F 30.2 °F 65% 30.26 in 10.0 mi NNW 18.4 mph 25.3 mph N/A   Clear
9:15 PM 39.2 °F 29.8 °F 32.0 °F 75% 30.27 in 10.0 mi NNW 18.4 mph 25.3 mph N/A   Partly Cloudy
9:35 PM 39.2 °F 29.6 °F 32.0 °F 75% 30.27 in 10.0 mi NNW 19.6 mph - N/A   Mostly Cloudy
9:55 PM 37.4 °F 28.2 °F 32.0 °F 81% 30.30 in 10.0 mi NNW 16.1 mph 28.8 mph N/A   Overcast
10:15 PM 35.6 °F 25.5 °F 32.0 °F 87% 30.30 in 8.0 mi NNW 17.3 mph 28.8 mph N/A   Overcast
10:35 PM 35.6 °F 25.9 °F 32.0 °F 87% 30.28 in 4.0 mi North 16.1 mph 24.2 mph N/A   Overcast
10:55 PM 33.8 °F 25.3 °F 30.2 °F 87% 30.28 in 1.5 mi North 11.5 mph - 0.02 in   Overcast
11:15 PM 33.8 °F 25.3 °F 32.0 °F 93% 30.30 in 2.5 mi NNW 11.5 mph 18.4 mph N/A   Overcast
11:35 PM 33.8 °F 23.5 °F 32.0 °F 93% 30.27 in 5.0 mi NNW 16.1 mph 23.0 mph N/A   Overcast
11:55 PM 33.8 °F 23.5 °F 32.0 °F 93% 30.30 in 5.0 mi NNW 16.1 mph 23.0 mph N/A   Overcast